www.pogodaiklimat.ru

Погода и климат >> Архив погоды >> Австралия >> Северная территория >> Манингрида


ПОГОДА в Манингриде

  • Прогноз погоды в Манингриде
  • Монитор погоды в Манингриде

АРХИВ ПОГОДЫ в Манингриде

Время (UTC), дата Ветер
(напр.,м/с)
 
Видим.   Явления Облачность Т
(С)
Тd
(С)
f
(%)
Тe
(С)
Тes
(С)
Комфортность P
(гПа)
Po
(гПа)
Тmin
(С)
Tmax
(С)
R
(мм)
R24
(мм)
S
(см)
17 11.09 ЮВ 3 н/о н/о +19.8 +15.7 77 +22 +22 комфорт 1017.2 1013.8
20 11.09 Ю 3 н/о н/о +18.4 +15.8 85 +19 +19 1016.7 1013.3
23 11.09 ЮВ 5 н/о н/о +23.5 +13.1 52 +26 +26 жарко 1018.4 1015.0
02 12.09 В 7 н/о 3/3 1500 м
[]
+29.1 +10.7 32 +29 +29 жарко 1017.5 1014.1 +17.7
05 12.09 СВ 6 н/о н/о +29.5 +16.0 44 +33 +33 душно 1014.2 1010.8
08 12.09 СВ 6 н/о н/о +26.0 +18.4 63 +31 +31 очень
душно
1014.1 1010.7
11 12.09 В 3 н/о н/о +24.6 +18.8 70 +29 +29 душно 1016.0 1012.6
14 12.09 ЮВ 5 н/о н/о +22.9 +10.0 44 +25 +25 комфорт 1017.2 1013.8 +31.7
17 12.09 ЮВ 4 н/о н/о +19.0 +13.6 71 +20 +20 1016.5 1013.1
20 12.09 Ю 4 н/о н/о +19.2 +15.7 80 +21 +21 комфорт 1016.3 1012.9
23 12.09 ЮВ 5 н/о н/о +24.8 +9.5 38 +26 +26 жарко 1018.0 1014.6
02 13.09 ЮВ 6 н/о 5/0 2000 м
[]
+29.5 +11.1 32 +30 +30 жарко 1016.7 1013.3 +18.5
05 13.09 СВ 6 н/о н/о +29.5 +14.1 39 +31 +31 жарко 1013.7 1010.3
08 13.09 В 6 н/о н/о +26.7 +17.8 58 +31 +31 душно 1013.5 1010.1
11 13.09 В 4 н/о н/о +24.5 +20.0 76 +30 +30 очень
душно
1015.8 1012.4
14 13.09 ЮВ 6 н/о н/о +23.9 +12.8 50 +26 +26 жарко 1016.7 1013.3 +31.8
17 13.09 ЮВ 4 н/о н/о +21.3 +16.7 75 +25 +25 комфорт 1016.2 1012.8
20 13.09 Ю 3 н/о н/о +19.0 +17.1 89 +21 +21 комфорт 1015.5 1012.1
23 13.09 ЮВ 6 н/о н/о +25.2 +13.7 49 +27 +27 жарко 1017.2 1013.8
02 14.09 В 7 н/о н/о +31.1 +9.9 27 +31 +31 жарко 1016.1 1012.7 +18.7
05 14.09 СВ 7 н/о 1/0
[]
+28.0 +16.3 49 +31 +31 душно 1013.4 1010.0
08 14.09 СВ 5 н/о н/о +26.4 +18.5 62 +31 +31 душно 1013.2 1009.8
11 14.09 В 3 н/о н/о +24.2 +19.5 75 +29 +29 душно 1015.2 1011.8
14 14.09 ЮВ 4 н/о н/о +23.2 +9.2 41 +25 +25 комфорт 1016.1 1012.7 +32.0
17 14.09 ЮВ 4 н/о н/о +20.2 +9.2 49 +22 +22 комфорт 1015.0 1011.6
20 14.09 Ю 3 н/о н/о +18.1 +11.9 67 +18 +18 1015.1 1011.7
23 14.09 ЮВ 5 н/о н/о +24.7 +13.6 50 +27 +27 жарко 1016.7 1013.3
02 15.09 В 7 н/о н/о +28.9 +15.4 44 +32 +32 душно 1015.6 1012.2 +17.4
05 15.09 СВ 6 н/о н/о +30.2 +15.1 40 +33 +33 душно 1013.0 1009.6
08 15.09 СВ 5 н/о н/о +26.5 +18.9 63 +32 +32 очень
душно
1013.2 1009.8
11 15.09 В 3 н/о н/о +24.4 +19.5 74 +30 +30 очень
душно
1014.6 1011.2
14 15.09 ЮВ 2 5000 м н/о +21.5 +19.1 86 +26 +26 душно 1015.2 1011.8 +31.3
17 15.09 В 4 н/о н/о +20.4 +16.0 76 +24 +24 комфорт 1014.7 1011.3
20 15.09 ЮВ 3 н/о н/о +18.1 +15.4 84 +19 +19 1015.4 1012.0
23 15.09 ЮВ 5 н/о н/о +22.3 +15.9 67 +26 +26 жарко 1016.6 1013.2
02 16.09 В 5 н/о 1/0
[]
+28.2 +16.8 50 +32 +32 душно 1015.8 1012.4 +17.4
05 16.09 СВ 7 н/о н/о +28.4 +17.0 50 +32 +32 душно 1013.2 1009.8
08 16.09 С 5 н/о н/о +26.7 +19.6 65 +32 +32 очень
душно
1012.9 1009.5
11 16.09 СВ 4 н/о н/о +24.7 +20.6 78 +31 +31 очень
душно
1014.5 1011.1
14 16.09 В 3 н/о н/о +23.7 +19.8 79 +29 +29 душно 1014.8 1011.4 +30.2
17 16.09 ЮВ 3 9000 м н/о +20.3 +18.6 90 +24 +24 комфорт 1013.8 1010.4
20 16.09 ЮВ 2 н/о н/о +17.8 +16.5 92 +18 +18 1014.8 1011.4
23 16.09 ЮВ 5 н/о н/о +23.9 +17.4 67 +28 +28 душно 1017.0 1013.6
02 17.09 СВ 7 н/о н/о +29.3 +15.4 43 +32 +32 душно 1016.2 1012.8 +16.8
05 17.09 СВ 6 н/о н/о +29.4 +16.9 47 +33 +33 душно 1013.9 1010.5
08 17.09 В 6 н/о 1/0
[]
+27.0 +18.8 61 +32 +32 очень
душно
1013.3 1009.9
11 17.09 СВ 5 н/о н/о +24.8 +20.7 78 +31 +31 очень
душно
1015.3 1011.9
14 17.09 ЮВ 3 н/о н/о +23.3 +20.6 85 +31 +31 очень
душно
1015.8 1012.4 +31.2
17 17.09 штиль 0 н/о н/о +19.7 +18.2 91 +22 +22 комфорт 1014.9 1011.5
20 17.09 Ю 2 н/о н/о +16.5 +15.5 94 +17 +17 1015.5 1012.1
23 17.09 В 3 н/о н/о +24.6 +16.3 60 +28 +28 душно 1017.1 1013.7
02 18.09 СВ 6 н/о н/о +30.1 +10.6 30 +30 +30 жарко 1016.4 1013.0 +16.2
05 18.09 СВ 6 н/о н/о +29.3 +15.1 42 +32 +32 душно 1014.3 1010.9
08 18.09 СВ 5 н/о н/о +27.1 +17.3 55 +31 +31 душно 1013.6 1010.2
11 18.09 В 3 н/о н/о +24.5 +19.6 74 +30 +30 очень
душно
1014.6 1011.2
14 18.09 ЮВ 2 н/о н/о +20.8 +18.7 88 +26 +26 душно 1015.1 1011.7 +31.5
17 18.09 Ю 2 н/о н/о +18.9 +17.9 94 +21 +21 комфорт 1014.1 1010.7

 

Местоположение метеостанции Манингрида (Северная территория, Австралия): широта -12.05 долгота 134.23 высота над уровнем моря 29 м.

В архиве по умолчанию представлена погода в Манингриде за последнюю неделю. Архивные данные за месяц целиком и за предыдущие месяцы, начиная с января 2011 года, Вы можете получить, выбрав интересующий диапазон дат из раскрывающегося списка и нажав кнопку "Ввод!".


*Определитесь, кто Вы:
робот инопланетянин человек

Внимание! Время в таблицах - всемирное. Для получения местного времени необходимо прибавить поправку, которая равна 9.5 ч.

Смотрите также архив погоды в соседних городах и на ближайших метеорологических станциях:

Погода в Милинджимби (Северная территория, Австралия) (73 км)
Погода в Уорруви (Северная территория, Австралия) (103 км)
Погода в Галивинку (Северная территория, Австралия) (146 км)
Погода в Джаберу (Северная территория, Австралия) (160 км)
Погода на Острове Маклер (Северная территория, Австралия) (176 км)
Погода в Булман Уимол (Северная территория, Австралия) (181 км)
Погода на Центральном плато Арнем (Северная территория, Австралия) (189 км)
Погода в Пойнт Стьюарт (Северная территория, Австралия) (256 км)
Погода в Кейп-Доне (Северная территория, Австралия) (280 км)
Погода в Аэропорту Гоув (Северная территория, Австралия) (282 км)

Пояснения к столбцам:

Ветер - указаны скорость ветра в м/с - средняя за 10 мин, порывы в срок и между сроками (в фигурных скобках) и направление, откуда дует ветер: С - северный, СВ - северо-восточный, В - восточный, ЮВ - юго-восточный, Ю - южный, ЮЗ - юго-западный, З - западный, СЗ - северо-западный.
Видимость - горизонтальная дальность видимости в метрах или километрах. При видимости от 1 до 10 км при отсутствии осадков обычно наблюдается дымка, при ухудшении видимости до 1 км и менее - туман. В сухую погоду видимость может ухудшаться дымом, пылью или мглою.
Явления - указаны атмосферные явления, наблюдавшиеся в срок или в последний час перед сроком; фигурными скобками обозначены явления, наблюдавшиеся между сроками (за 1-3 часа до срока); квадратными скобками обозначены град или гололедные отложения с указанием их диаметра в мм.
Облачность - указаны через наклонную черту общая и нижняя облачность в баллах и высота нижней границы облаков в метрах; квадратными скобками обозначены формы облаков: Ci - перистые, Cs - перисто-слоистые, Cc - перисто-кучевые, Ac - высококучевые, As - высокослоистые, Sc - слоисто-кучевые, Ns - слоисто-дождевые, Cu - кучевые, Cb - кучево-дождевые. Подробнее классификацию облаков см. в Атласе облаков (PDF).
T - Температура воздуха - температура, измеренная на высоте 2 м над землей.
Td - Температура точки росы - температура, при понижении до которой содержащийся в воздухе водяной пар достигнет насыщения.
f - Относительная влажность воздуха - влажноcть воздуха, измеренная на высоте 2 м над землей.
Te - Эффективная температура - температура, которую ощущает одетый по сезону человек в тени. Характеристика душности погоды. При расчете учитывается влияние влажности воздуха и скорости ветра на теплоощущения человека.
Tes - Эффективная температура на солнце - температура, которую ощущает человек, с поправкой на солнечный нагрев. Характеристика знойности погоды. Зависит от высоты солнца над горизонтом, облачности и скорости ветра. Ночью, в пасмурную погоду, а также при ветре 12 м/с и более поправка равна нулю.
P - Атмосферное давление - приведенное к уровню моря атмосферное давление.
Po - Атмосферное давление - измеренное на уровне метеостанции атмосферное давление.
Tmin - Минимальная температура - минимум температуры воздуха на высоте 2 м над землей.
Tmax - Максимальная температура - максимум температуры воздуха на высоте 2 м над землей.
R - Количество осадков - Количество выпавших осадков за период времени, мм. При наведении курсора мыши на число - период времени, за который выпало указанное количество осадков.
R24 - Количество осадков - Количество выпавших осадков за 24 часа, мм.
S - Снежный покров - Высота снежного покрова, см. При наведении курсора мыши на число - состояние снежного покрова и степень покрытия местности в баллах.